Temp
77 76 74 73 71 71 70 69 68 67 67 67 65 67 68 64 68 68 66 65 66 65 66 66 65 65 67 67 67 66 62 61 61 68 73 70 68 67 69 69 68 69 69
77 75 73 72 71 69 68 67 68 66 68 68 68 67 66 66 67 66 64 63 64 65 66 65 66 66 66 66 65 64 62 61 62 60 64 65 62 66 67 65 67 71 72
74 73 71 68 67 66 66 66 66 66 66 63 64 62 64 68 67 65 64 65 64 66 66 65 65 66 65 64 64 64 64 64 63 59 59 63 63 65 63 64 66 66 67
72 70 68 67 66 62 60 59 60 60 61 63 63 64 68 68 68 65 66 65 66 67 63 66 68 65 66 66 66 65 65 62 60 58 59 58 61 63 63 61 62 63 63
70 69 67 67 65 63 63 60 60 61 61 64 66 67 67 67 65 65 63 65 65 63 67 66 66 63 61 61 66 65 63 60 58 57 57 60 58 60 59 59 59 57 60
69 68 69 68 65 63 61 61 62 59 59 61 64 65 65 63 55 54 56 63 64 64 65 68 64 63 61 58 57 57 56 59 59 61 62 58 57 59 60 59 57 56 55
68 69 70 66 64 63 63 63 59 58 59 59 61 59 62 61 51 50 52 63 64 61 63 67 67 65 64 66 57 57 57 56 55 58 61 60 59 58 58 60 60 59 55
69 70 70 67 61 61 59 60 59 58 58 58 59 61 61 54 49 48 50 62 64 64 68 68 65 63 61 61 58 56 59 64 64 64 63 62 61 61 63 59 58 55 57
70 70 69 66 59 59 58 59 58 58 58 59 60 60 59 60 48 47 51 63 61 66 65 68 67 63 50 50 56 57 58 63 56 54 53 50 50 52 58 62 55 58 55
70 70 69 61 59 61 60 59 61 59 59 60 59 60 54 57 49 47 51 62 63 63 67 65 58 59 49 50 55 57 61 62 64 62 64 58 57 56 56 63 63 54 55
71 70 64 62 63 64 63 61 61 59 59 58 59 60 59 54 52 47 46 61 64 65 68 64 66 49 48 48 47 63 57 63 63 68 68 68 67 66 60 60 64 64 58
71 68 64 63 67 66 63 63 61 60 59 58 58 59 58 56 49 51 45 48 53 61 59 61 64 47 47 47 53 50 51 55 64 62 70 68 68 71 72 64 64 65 72
69 67 66 66 67 66 64 64 62 61 60 59 58 55 55 57 56 51 48 48 51 61 60 52 47 45 47 48 48 49 47 70 66 66 66 67 69 65 70 67 67 69 71
67 67 68 67 66 66 68 69 65 62 62 59 57 54 53 50 55 59 68 67 53 63 55 62 61 59 56 62 60 61 64 68 66 63 64 70 73 71 72 73 71 69 69
67 67 68 69 67 66 68 68 66 65 59 60 54 51 49 48 55 46 47 63 62 54 57 68 69 69 69 69 71 72 74 72 72 60 59 62 67 67 67 72 73 66 69
66 68 68 68 69 69 68 68 50 50 46 46 41 43 50 46 42 41 42 42 41 42 65 68 66 66 67 68 69 70 73 68 69 70 70 70 64 64 64 69 74 74 71
66 66 68 66 69 69 68 67 65 55 46 44 42 42 40 41 40 42 42 42 41 45 66 69 68 65 67 71 70 71 71 74 75 72 74 69 74 76 73 73 74 75 75
68 57 68 69 70 69 69 68 69 67 66 66 47 49 42 42 41 41 41 44 63 58 68 61 61 66 61 68 64 72 70 73 74 75 74 75 76 73 74 74 75 74 74
70 71 71 71 71 67 69 69 70 70 69 68 70 49 49 43 43 41 41 64 65 68 70 72 72 68 72 63 68 71 70 71 74 74 75 75 76 76 75 76 72 59 64
71 58 58 70 70 70 70 70 71 70 69 69 70 70 66 61 64 63 64 67 67 67 67 70 70 73 73 68 72 74 67 68 68 74 75 75 76 76 77 76 73 74 73
72 71 61 71 70 70 70 69 70 70 69 70 70 67 39 68 68 70 70 69 69 70 66 68 73 72 73 71 72 73 64 71 70 73 76 76 75 75 77 78 78 78 77
72 72 72 72 71 68 66 67 66 68 69 70 71 68 39 67 68 69 71 71 70 71 68 70 69 68 75 75 74 75 73 69 68 66 65 72 77 77 78 78 78 77 78
71 71 72 70 71 63 67 68 68 67 67 68 70 71 66 68 69 70 71 73 73 73 72 72 68 70 72 74 71 77 76 76 77 74 70 72 73 75 72 77 77 76 76
70 69 70 66 66 66 65 65 68 59 66 68 64 65 71 71 71 71 72 73 73 73 73 72 72 73 75 68 75 74 77 75 77 77 68 70 66 67 75 74 75 75 74
70 69 66 65 67 69 67 64 65 63 65 67 63 58 60 65 70 72 72 72 72 72 73 74 74 74 73 73 73 75 54 40 61 44 73 70 68 70 73 72 69 70 71
67 67 66 66 65 66 65 63 63 63 59 61 63 60 58 58 57 56 64 71 71 72 72 73 73 73 73 74 72 58 38 40 55 38 58 68 69 67 70 73 73 72 71
MSLP
1014.75 1015.24 1015.36 1015.40 1015.56 1015.63 1015.62 1015.50 1015.40 1015.18 1014.93 1014.49 1013.92 1013.51 1013.19 1013.13 1012.28 1011.91 1011.90 1012.05 1011.50 1011.29 1011.44 1011.39 1011.42 1011.65 1011.63 1011.52 1011.57 1011.78 1011.83 1011.82 1011.55 1010.72 1010.24 1010.45 1010.96 1011.41 1011.23 1011.21 1011.22 1011.02 1010.63
1014.85 1015.36 1015.50 1015.53 1015.62 1015.64 1015.71 1015.60 1015.32 1014.90 1014.44 1013.92 1013.38 1013.12 1012.93 1012.53 1011.66 1011.65 1011.56 1011.45 1010.97 1010.65 1010.55 1010.73 1010.76 1010.89 1010.98 1011.24 1011.41 1011.43 1011.33 1011.27 1011.31 1010.98 1010.80 1010.93 1011.13 1011.07 1010.91 1010.85 1010.75 1010.31 1010.07
1015.51 1015.62 1015.62 1015.82 1016.00 1015.99 1015.76 1015.46 1015.07 1014.60 1014.15 1013.99 1013.57 1013.14 1012.62 1011.60 1011.32 1011.22 1011.05 1010.74 1010.53 1010.06 1009.93 1010.12 1010.13 1010.41 1010.53 1010.76 1010.91 1010.96 1011.07 1011.14 1011.14 1011.06 1010.94 1011.00 1010.98 1010.85 1010.64 1010.40 1010.18 1010.19 1010.14
1015.94 1015.92 1015.94 1016.15 1016.01 1016.07 1016.15 1015.91 1015.53 1014.99 1014.42 1013.77 1013.21 1012.61 1011.63 1011.34 1010.96 1010.85 1010.42 1010.28 1009.73 1009.54 1009.63 1009.73 1009.76 1009.67 1010.11 1010.17 1010.40 1010.61 1010.72 1010.89 1011.00 1010.91 1010.83 1010.87 1010.66 1010.35 1010.24 1010.13 1009.86 1010.07 1010.38
1016.07 1016.05 1016.04 1015.84 1015.93 1016.06 1015.86 1015.75 1015.20 1014.72 1014.00 1013.28 1012.25 1011.82 1011.36 1010.98 1010.88 1010.53 1010.48 1009.84 1009.47 1009.33 1009.07 1009.27 1009.30 1009.71 1010.09 1010.34 1010.36 1010.55 1010.74 1010.84 1010.77 1010.71 1010.60 1010.19 1010.06 1009.90 1009.89 1009.91 1010.04 1010.46 1010.95
1016.18 1015.99 1015.61 1015.25 1015.71 1015.71 1015.58 1015.17 1014.42 1014.17 1013.71 1012.95 1012.01 1011.36 1010.90 1010.93 1010.85 1010.98 1011.05 1010.02 1009.48 1009.19 1009.08 1009.09 1009.32 1009.78 1010.22 1010.63 1011.00 1011.19 1011.19 1010.72 1010.29 1010.08 1009.78 1009.83 1009.92 1009.94 1010.15 1010.17 1010.38 1010.79 1011.00
1015.90 1015.43 1015.04 1015.45 1015.34 1015.27 1014.90 1014.40 1014.23 1013.86 1013.44 1012.82 1012.10 1011.67 1011.05 1011.04 1011.30 1011.12 1011.01 1010.28 1009.63 1009.40 1009.23 1009.10 1009.14 1009.66 1010.16 1010.48 1011.06 1010.90 1010.48 1010.41 1010.41 1010.22 1009.65 1009.71 1009.86 1009.87 1009.96 1010.22 1010.55 1010.95 1011.50
1015.26 1014.92 1014.76 1014.94 1015.25 1015.30 1015.07 1014.51 1014.02 1013.69 1013.09 1012.52 1012.04 1011.50 1011.10 1011.49 1011.51 1011.14 1010.90 1010.23 1009.45 1009.18 1008.93 1008.95 1009.54 1010.31 1010.78 1010.90 1011.05 1010.60 1010.02 1009.82 1010.04 1009.96 1009.84 1010.15 1010.43 1010.19 1010.15 1010.80 1011.22 1011.68 1012.05
1014.64 1014.46 1014.57 1014.87 1015.42 1015.17 1014.71 1014.43 1013.99 1013.34 1012.70 1012.11 1011.73 1011.28 1011.11 1010.91 1011.39 1011.10 1010.60 1009.72 1009.42 1009.02 1008.78 1009.20 1009.69 1010.59 1011.10 1011.13 1011.02 1010.77 1010.22 1009.98 1010.40 1010.30 1010.64 1010.88 1010.88 1010.81 1010.63 1011.17 1011.69 1011.61 1012.26
1014.38 1014.30 1014.32 1015.20 1015.20 1014.64 1014.55 1014.20 1013.60 1013.27 1012.49 1011.97 1011.46 1011.33 1011.40 1011.48 1011.51 1010.75 1010.76 1009.80 1009.32 1009.14 1009.12 1009.78 1010.24 1011.00 1011.17 1011.06 1011.14 1011.13 1010.01 1010.09 1010.32 1011.03 1011.12 1011.34 1011.09 1011.34 1011.19 1010.77 1011.04 1011.80 1012.45
1014.28 1014.20 1014.71 1015.01 1014.66 1014.03 1014.07 1013.88 1013.37 1013.14 1012.50 1011.98 1011.53 1011.26 1011.49 1011.72 1011.19 1011.14 1010.83 1009.96 1009.24 1009.09 1008.91 1009.80 1010.53 1011.19 1011.36 1011.13 1011.12 1010.41 1010.83 1010.31 1010.23 1010.29 1010.42 1010.75 1010.89 1010.86 1011.22 1011.39 1011.29 1011.32 1012.08
1014.14 1014.07 1014.50 1014.62 1013.90 1013.92 1013.73 1013.41 1013.09 1012.68 1012.36 1011.97 1011.62 1011.49 1011.35 1011.77 1011.51 1010.89 1010.68 1010.37 1009.83 1009.61 1009.79 1009.79 1010.44 1011.21 1011.41 1011.45 1011.26 1010.99 1010.74 1010.71 1010.09 1009.95 1009.70 1010.00 1010.11 1009.96 1010.33 1011.23 1011.09 1011.28 1011.15
1013.81 1013.78 1013.87 1013.94 1013.52 1013.59 1013.18 1012.76 1012.62 1012.53 1012.30 1012.12 1011.89 1011.88 1011.88 1011.74 1011.27 1010.74 1010.62 1010.53 1010.48 1010.04 1010.08 1010.29 1010.59 1011.06 1011.37 1011.39 1011.31 1011.13 1011.00 1010.09 1010.24 1010.17 1010.32 1010.13 1010.01 1010.41 1010.94 1011.44 1011.59 1011.45 1011.66
1013.55 1013.45 1013.18 1013.04 1013.01 1013.01 1012.58 1011.95 1012.22 1012.37 1012.31 1012.20 1012.31 1012.54 1012.39 1012.15 1011.71 1011.10 1010.16 1010.23 1010.41 1010.36 1010.57 1010.63 1010.70 1010.73 1010.90 1010.78 1011.15 1010.78 1010.53 1010.32 1010.07 1010.55 1010.56 1010.35 1010.22 1010.52 1010.56 1010.82 1011.05 1011.50 1011.65
1013.36 1013.14 1012.64 1012.28 1012.38 1012.36 1011.85 1011.83 1012.08 1012.28 1012.95 1013.03 1013.15 1013.31 1013.09 1012.62 1012.31 1012.66 1012.13 1010.59 1010.76 1010.68 1010.47 1010.39 1010.27 1010.12 1010.05 1010.23 1009.98 1009.92 1009.72 1009.83 1009.56 1010.46 1010.62 1010.41 1010.44 1010.79 1010.70 1010.51 1010.48 1011.15 1011.22
1012.94 1012.47 1012.26 1012.22 1011.90 1011.60 1011.53 1011.50 1012.13 1012.30 1012.59 1012.76 1013.02 1013.25 1013.14 1013.00 1012.79 1012.65 1012.26 1011.98 1011.54 1011.07 1010.33 1009.83 1009.76 1009.76 1009.79 1009.72 1009.61 1009.55 1009.50 1009.57 1009.56 1009.55 1009.76 1010.02 1010.29 1010.43 1010.46 1010.46 1010.25 1010.25 1010.60
1012.44 1012.50 1012.14 1011.78 1011.37 1011.08 1011.11 1011.11 1011.11 1011.96 1012.05 1012.28 1012.49 1012.68 1012.77 1012.61 1012.60 1012.39 1012.26 1011.89 1011.33 1011.12 1010.44 1009.49 1009.46 1009.72 1009.67 1009.38 1009.44 1009.38 1009.17 1009.14 1009.37 1009.49 1009.46 1009.62 1009.57 1009.45 1009.99 1009.98 1010.00 1009.99 1010.15
1011.74 1011.92 1011.76 1011.19 1010.87 1010.70 1010.37 1010.41 1010.38 1010.33 1010.51 1010.81 1011.78 1011.98 1012.20 1012.17 1012.31 1012.28 1012.09 1011.90 1011.23 1010.75 1010.10 1010.02 1009.59 1009.51 1009.63 1009.43 1009.78 1009.16 1009.23 1008.97 1009.25 1009.26 1009.33 1009.26 1009.21 1009.48 1009.69 1009.87 1009.82 1009.87 1010.06
1010.89 1010.78 1010.54 1010.41 1010.22 1010.22 1010.37 1010.03 1009.60 1009.39 1009.49 1009.67 1009.67 1011.13 1011.48 1011.51 1011.50 1011.66 1011.84 1011.01 1010.00 1009.54 1009.12 1008.61 1008.80 1008.96 1008.65 1009.12 1009.29 1008.77 1008.99 1008.90 1008.79 1009.10 1009.09 1009.12 1009.09 1009.00 1009.10 1009.23 1009.58 1009.94 1010.44
1009.92 1009.93 1010.05 1010.00 1009.80 1009.50 1009.18 1008.80 1008.54 1008.56 1008.70 1008.82 1008.89 1009.12 1009.88 1010.39 1010.40 1010.40 1010.19 1009.65 1009.31 1009.16 1008.76 1008.25 1008.17 1008.19 1008.19 1008.75 1008.50 1008.40 1008.72 1008.91 1008.89 1008.95 1008.94 1008.97 1009.04 1008.96 1008.83 1008.95 1009.49 1009.87 1010.29
1009.01 1008.83 1008.83 1008.89 1008.81 1008.75 1008.63 1008.38 1008.22 1008.09 1008.00 1008.07 1008.35 1008.89 1009.26 1009.33 1009.12 1008.48 1008.31 1008.50 1008.32 1008.15 1008.19 1008.09 1007.49 1007.83 1007.81 1008.33 1007.98 1008.14 1008.78 1008.73 1008.56 1008.39 1008.34 1008.56 1008.81 1008.88 1008.73 1008.70 1008.76 1009.02 1009.36
1008.12 1007.86 1007.69 1007.53 1007.52 1007.75 1007.90 1007.90 1007.84 1007.65 1007.52 1007.35 1007.50 1008.16 1008.72 1008.97 1008.58 1008.01 1007.39 1007.29 1007.80 1007.64 1007.88 1007.71 1007.64 1007.66 1007.32 1007.14 1007.23 1007.23 1007.94 1008.36 1008.50 1008.51 1009.01 1008.81 1008.27 1008.36 1008.45 1008.51 1008.54 1008.81 1008.98
1007.36 1007.05 1006.62 1006.53 1006.50 1006.62 1007.02 1007.13 1007.00 1006.91 1006.85 1006.89 1006.92 1007.13 1008.16 1007.84 1007.45 1007.08 1006.65 1006.44 1006.68 1006.84 1007.32 1007.45 1007.42 1007.12 1007.28 1007.03 1007.04 1006.83 1006.71 1006.81 1007.13 1007.86 1009.23 1008.88 1008.36 1008.23 1008.47 1008.29 1008.40 1008.72 1008.98
1006.66 1006.30 1005.89 1005.84 1005.99 1005.91 1005.72 1005.71 1005.64 1005.98 1006.28 1006.22 1006.60 1006.61 1006.32 1006.20 1006.07 1005.99 1006.02 1005.96 1006.02 1006.17 1006.35 1006.48 1006.63 1006.65 1006.39 1006.76 1006.87 1006.87 1006.45 1006.75 1007.06 1007.35 1007.86 1008.38 1008.68 1008.71 1008.40 1008.64 1008.77 1008.88 1009.32
1005.86 1005.40 1005.00 1004.76 1004.51 1004.49 1004.74 1005.19 1005.35 1005.62 1005.42 1005.49 1006.34 1006.45 1006.43 1006.12 1005.53 1005.26 1005.45 1005.54 1005.72 1005.70 1005.72 1005.83 1005.90 1005.90 1006.23 1006.54 1006.62 1006.54 1007.31 1007.89 1008.01 1008.16 1007.83 1008.18 1008.60 1008.72 1008.57 1008.74 1009.06 1009.41 1009.21
1005.33 1004.62 1004.21 1004.14 1004.11 1004.15 1004.32 1004.52 1004.68 1005.14 1005.62 1005.80 1005.84 1006.30 1006.29 1006.38 1006.61 1006.64 1005.64 1004.91 1005.00 1005.13 1005.22 1005.27 1005.37 1005.56 1005.58 1005.72 1006.41 1006.84 1007.53 1007.45 1007.65 1008.36 1008.47 1008.07 1008.37 1009.03 1008.53 1008.62 1008.85 1009.19 1009.24
Wind_Speed
7 7 7 9 8 10 12 13 14 13 13 15 13 14 12 14 15 12 11 14 17 13 13 12 12 11 8 7 6 8 7 8 10 11 9 1 3 8 8 9 8 10 8
7 10 11 11 12 13 13 14 14 15 14 15 14 12 13 18 12 13 12 12 14 13 15 12 14 8 10 9 7 9 10 5 7 11 8 8 5 7 10 9 8 9 8
11 12 12 12 12 12 13 14 14 13 13 13 13 11 16 15 13 13 12 13 13 14 12 11 12 10 10 7 8 7 6 6 6 7 7 5 5 8 8 7 8 7 4
11 11 11 11 11 9 10 10 12 12 13 12 11 16 15 15 15 14 11 13 11 10 10 11 12 11 9 7 6 6 6 5 4 4 6 6 8 7 5 5 4 5 5
10 10 10 11 9 11 13 11 12 13 13 17 15 15 15 12 10 10 11 10 9 7 9 7 8 9 9 7 2 3 6 6 5 4 7 7 5 5 4 2 3 5 5
9 11 11 10 11 10 12 13 16 13 12 15 16 15 14 9 9 3 8 10 8 6 6 5 6 10 8 9 7 3 6 9 9 7 7 5 5 2 2 4 5 5 3
9 11 11 12 12 13 15 16 15 15 15 15 14 15 11 8 9 8 8 10 8 6 6 7 3 6 5 4 4 9 6 7 10 7 4 2 2 2 5 6 5 6 3
11 12 13 12 11 12 13 14 14 12 13 13 13 13 10 5 9 9 11 10 8 6 7 5 6 8 8 7 6 8 9 2 1 3 7 6 7 6 6 9 10 7 6
11 12 13 14 10 11 10 14 14 13 12 12 10 11 6 8 11 10 14 9 5 7 5 8 9 10 6 8 5 9 6 8 10 13 11 9 10 8 8 9 5 7 6
13 13 11 9 8 12 11 13 12 13 13 10 8 7 6 9 10 15 12 7 5 4 6 9 13 11 7 6 4 5 2 7 11 10 10 9 6 5 0 6 10 9 6
12 13 9 6 13 7 10 9 11 10 10 10 9 7 8 7 11 11 8 7 6 6 7 8 10 10 10 6 7 6 3 1 9 9 9 9 9 9 5 4 4 9 7
10 10 5 6 8 9 10 8 9 8 10 11 10 7 4 7 6 6 6 6 10 5 5 3 10 11 8 8 5 5 8 5 2 4 6 6 6 5 9 6 6 10 8
10 11 5 9 5 9 8 7 6 7 9 8 7 7 8 8 8 5 1 3 3 3 3 7 13 9 7 4 7 6 5 1 2 4 6 1 7 6 9 7 6 10 10
9 10 8 9 4 6 9 6 7 6 8 8 8 8 8 6 5 7 4 4 5 6 10 7 6 6 5 5 5 5 5 4 2 3 4 5 5 6 8 7 8 8 7
7 9 9 7 6 7 6 5 5 4 4 7 6 5 6 7 4 6 8 7 6 5 6 6 7 7 7 6 6 4 2 4 3 8 4 4 4 4 3 3 6 5 8
7 8 6 6 6 6 5 5 4 3 11 10 8 5 3 8 8 7 6 7 8 8 5 6 5 4 4 3 3 4 3 1 2 1 3 10 6 4 3 3 4 6 7
7 7 8 7 7 6 5 6 7 7 9 9 9 9 9 11 8 6 6 8 8 8 7 4 5 8 5 6 4 5 4 5 3 4 4 4 4 6 8 6 6 5 5
9 9 9 7 7 6 6 7 6 6 5 4 10 10 11 8 6 7 4 4 6 7 8 7 3 4 4 4 4 8 6 5 5 6 5 5 6 7 7 6 6 6 5
9 9 8 7 7 5 7 7 7 6 5 5 3 7 10 10 9 7 6 8 8 8 9 8 7 7 7 1 6 4 7 2 6 6 7 6 5 5 6 8 5 6 5
10 14 12 9 9 10 9 8 6 6 6 6 6 5 10 10 8 8 10 10 8 8 8 9 8 9 5 6 9 7 2 3 3 7 7 7 6 7 7 8 9 9 10
9 10 10 10 10 9 9 9 8 7 6 6 6 3 7 3 8 7 7 7 9 8 6 7 6 10 9 9 7 6 2 8 5 9 8 8 9 8 8 7 7 8 7
11 11 11 10 10 8 8 7 8 9 10 9 7 6 9 7 9 10 9 8 9 9 7 8 6 4 8 8 8 9 12 12 10 2 2 9 8 10 9 9 8 8 7
12 13 12 10 11 11 10 11 11 11 9 9 9 8 9 9 9 10 11 8 9 9 9 10 7 7 8 8 2 8 10 9 9 12 11 9 5 5 4 7 8 6 5
12 13 13 8 9 9 8 10 11 11 13 11 7 8 10 9 10 10 10 9 9 9 10 10 10 14 10 4 7 7 5 5 3 9 8 8 4 6 7 4 6 6 6
12 13 11 9 9 10 10 10 10 8 9 8 8 5 7 9 10 10 10 10 10 10 11 10 10 13 15 15 13 14 7 7 7 5 3 5 5 7 8 6 4 11 8
14 12 9 8 8 9 7 7 7 6 5 7 8 7 7 7 8 9 10 10 10 11 12 10 12 16 16 15 18 15 6 5 2 5 3 5 11 10 6 9 10 11 8
Wind_Direction
352 329 327 327 322 319 315 315 314 307 299 296 291 275 291 285 272 280 294 286 276 267 253 244 237 236 243 265 254 259 266 215 254 279 283 108 262 265 266 256 263 264 253
348 338 328 330 331 325 324 313 309 301 294 291 286 290 293 283 291 303 282 275 270 261 256 243 251 242 241 240 247 249 252 278 281 264 281 297 266 284 279 269 259 259 259
350 334 336 339 335 322 312 316 308 309 321 333 321 305 277 286 296 298 277 275 266 265 258 243 245 241 244 234 240 244 265 285 279 263 266 266 278 271 268 265 255 242 218
339 335 340 335 317 358 347 332 326 313 303 293 281 274 294 293 293 291 284 277 274 266 244 234 232 230 238 231 250 273 270 275 254 251 263 276 265 255 247 258 234 154 142
336 339 335 317 12 335 323 314 299 300 305 294 301 299 292 288 300 293 304 283 293 265 242 212 222 100 80 66 330 304 295 278 258 237 258 269 251 241 237 184 123 111 98
338 328 320 334 340 314 309 305 306 306 290 296 302 295 291 313 309 308 302 299 289 282 254 241 133 131 121 96 75 9 294 279 261 261 256 249 252 227 183 150 131 132 115
324 313 326 353 319 333 326 327 324 321 312 305 305 303 311 311 18 351 317 294 276 283 243 230 210 56 134 117 90 317 265 219 241 292 251 147 85 170 146 153 146 101 81
313 327 342 331 356 339 330 331 329 319 318 315 313 305 305 66 14 4 345 286 265 268 226 207 131 124 61 65 4 333 313 178 253 196 78 103 84 55 128 98 99 97 79
328 330 347 356 347 321 329 338 326 325 317 318 311 312 350 357 3 329 358 281 240 246 182 127 118 96 84 49 353 339 320 107 70 78 92 95 90 88 112 111 126 131 92
331 336 352 22 327 322 352 329 332 334 330 328 337 12 21 10 348 1 316 256 216 169 123 95 109 108 78 10 334 346 90 116 114 121 108 93 110 112 289 118 122 110 103
334 335 37 359 311 351 348 342 330 334 330 342 330 33 26 8 349 334 329 274 204 174 154 148 139 135 131 238 279 359 52 320 125 131 129 134 160 187 168 155 164 124 126
333 335 6 328 322 342 336 331 315 326 350 346 12 356 25 1 328 355 327 293 339 345 100 192 133 164 184 211 247 11 336 324 37 66 139 142 149 111 91 82 83 162 149
325 327 334 323 344 320 325 339 345 350 349 350 2 353 353 356 357 342 277 324 340 68 129 104 119 155 179 231 281 285 294 276 136 141 140 132 101 83 105 106 90 90 111
318 318 320 298 347 318 302 350 356 355 346 347 14 2 345 340 353 341 175 188 201 160 133 131 128 149 212 149 172 252 246 244 101 145 169 152 143 140 144 146 144 147 136
309 300 299 336 314 296 302 334 327 16 4 335 4 339 334 323 13 329 304 329 3 333 310 150 178 194 165 179 205 196 185 197 223 148 195 177 148 161 226 193 167 156 154
290 291 332 305 318 293 319 316 146 166 173 197 229 233 295 256 312 304 299 304 297 327 243 181 217 189 210 272 220 180 205 268 157 266 184 167 184 183 191 166 249 176 170
272 283 294 312 309 320 315 294 310 208 226 210 203 228 234 289 310 302 319 310 294 313 244 260 204 193 199 224 249 222 226 191 214 202 210 165 232 159 182 177 190 192 156
261 249 260 279 286 294 309 316 293 284 299 192 212 222 219 225 245 241 238 277 223 227 261 180 222 244 253 209 255 230 257 195 197 229 203 224 196 159 186 183 200 199 174
260 256 272 273 278 291 288 260 274 286 284 286 251 186 193 208 205 213 241 247 230 223 223 238 214 247 206 139 271 257 247 316 182 201 218 211 219 203 194 197 142 119 128
258 239 244 268 277 283 281 278 280 281 274 260 264 263 165 177 201 206 207 224 232 235 244 260 215 226 223 221 227 202 298 185 239 193 212 212 212 238 211 204 158 179 177
266 269 242 249 258 266 270 274 280 287 281 276 270 255 86 255 282 256 222 222 253 222 244 241 276 213 190 244 206 185 193 270 202 223 199 199 194 220 244 217 218 207 179
260 261 266 262 255 240 248 259 266 265 270 269 259 208 162 217 248 256 247 227 211 246 211 253 238 251 249 228 239 187 197 208 248 86 15 280 209 206 205 231 217 217 199
262 263 261 255 255 249 249 249 255 258 261 271 265 259 189 229 245 239 248 240 224 219 219 236 242 237 219 247 254 270 214 207 210 160 205 250 239 223 291 231 217 220 220
261 263 264 260 261 261 253 238 241 236 255 256 272 276 261 251 246 246 251 247 236 237 221 216 221 241 249 199 271 260 273 348 338 184 165 226 235 286 253 228 282 264 266
255 249 240 252 256 261 260 251 257 280 274 242 264 282 326 311 262 246 245 235 240 245 237 237 240 229 224 245 248 250 113 76 28 9 263 206 241 261 206 246 229 279 198
287 274 261 262 262 266 273 267 258 273 303 289 257 266 275 269 302 344 321 252 236 236 239 239 234 237 248 222 223 245 123 125 133 77 304 294 191 229 223 236 231 244 262